McHenry, MD

1:23 PM EST on February 26, 2017 (GMT -0500)
Oakland

Weather History for K2G4 - June, 2013

Change the Weather History Date:

Thursday, June 27, 2013

  Actual Average (KMGW) Record (KMGW)
Temperature  
Mean Temperature 63 °F -  
Max Temperature 64 °F 82 °F 94 °F (1969)
Min Temperature 62 °F 58 °F 47 °F (1988)
Degree Days  
Heating Degree Days 2    
Growing Degree Days 13 (Base 50)    
Moisture  
Dew Point 63 °F    
Average Humidity 100    
Maximum Humidity 100    
Minimum Humidity 100    
Precipitation  
Precipitation 0.00 in - - ()
Sea Level Pressure  
Sea Level Pressure 29.84 in    
Wind  
Wind Speed 7 mph (SW)    
Max Wind Speed 14 mph    
Max Gust Speed 23 mph    
Visibility 5 miles    
Events Fog    
Averages and records for this station are not official NWS values.
T = Trace of Precipitation, MM = Missing Value Source: NWS Daily Summary

Daily Weather History Graph

Daily Weather History Graph

Search for Another Location

Airport or City:

Trip Planner

Search our weather history database for the weather conditions in past years. The results will help you decide how hot, cold, wet, or windy it might be!

Date:

Astronomy

Jun. 27, 2013 Rise Set
Actual Time 5:51 AM EDT 8:48 PM EDT
Civil Twilight 5:19 AM EDT 9:21 PM EDT
Nautical Twilight 4:38 AM EDT 10:02 PM EDT
Astronomical Twilight 3:50 AM EDT 10:50 PM EDT
Moon 11:46 PM EDT (6/27) 10:49 AM EDT (6/27)
Length of Visible Light 16h 01m
Length of Day
14h 57m
Waning Gibbous, 76% of the Moon is Illuminated
Jun 27
Waning Gibbous
Jun 30
Last Quarter
Jul 8
New
Jul 15
First Quarter
Jul 22
Full

Hourly Weather History & Observations

Time (EDT) Temp. Dew Point Humidity Pressure Visibility Wind Dir Wind Speed Gust Speed Precip Events Conditions
12:05 AM 64.4 °F 64.4 °F 100% 29.95 in 10.0 mi SSW 8.1 mph - N/A   Clear
12:25 AM 64.4 °F 64.4 °F 100% 29.95 in 10.0 mi SW 5.8 mph - N/A   Clear
12:45 AM 64.4 °F 64.4 °F 100% 29.95 in 7.0 mi SSW 6.9 mph - N/A   Clear
1:05 AM 64.4 °F 64.4 °F 100% 29.95 in 7.0 mi SSW 6.9 mph - N/A   Clear
1:25 AM 62.6 °F 62.6 °F 100% 29.95 in 7.0 mi South 6.9 mph - N/A   Clear
1:45 AM 62.6 °F 62.6 °F 100% 29.95 in 5.0 mi South 6.9 mph - N/A   Clear
2:05 AM 62.6 °F 62.6 °F 100% 29.94 in 7.0 mi South 8.1 mph - N/A   Clear
2:25 AM 64.4 °F 64.4 °F 100% 29.93 in 10.0 mi SW 8.1 mph - N/A   Clear
2:45 AM 64.4 °F 64.4 °F 100% 29.93 in 10.0 mi SW 6.9 mph - N/A   Scattered Clouds
3:05 AM 64.4 °F 64.4 °F 100% 29.91 in 10.0 mi SSW 5.8 mph - N/A   Clear
3:25 AM 64.4 °F 64.4 °F 100% 29.91 in 10.0 mi SSW 6.9 mph - N/A   Clear
3:45 AM 64.4 °F 64.4 °F 100% 29.90 in 10.0 mi SW 6.9 mph - N/A   Clear
4:10 AM 64.4 °F 64.4 °F 100% 29.89 in 10.0 mi SW 5.8 mph - N/A   Clear
4:30 AM 64.4 °F 64.4 °F 100% 29.89 in 10.0 mi SW 5.8 mph - N/A   Scattered Clouds
4:50 AM 64.4 °F 64.4 °F 100% 29.89 in 10.0 mi SSW 6.9 mph - N/A   Mostly Cloudy
5:10 AM 62.6 °F 62.6 °F 100% 29.89 in 10.0 mi South 4.6 mph - N/A   Overcast
5:30 AM 62.6 °F 62.6 °F 100% 29.88 in 10.0 mi SE 3.5 mph - N/A   Overcast
5:50 AM 62.6 °F 62.6 °F 100% 29.88 in 10.0 mi SE 3.5 mph - N/A   Mostly Cloudy
6:10 AM 62.6 °F 62.6 °F 100% 29.88 in 7.0 mi SE 4.6 mph - N/A   Scattered Clouds
6:30 AM 62.6 °F 62.6 °F 100% 29.87 in 10.0 mi SE 5.8 mph - N/A   Scattered Clouds
6:50 AM 62.6 °F 62.6 °F 100% 29.87 in 10.0 mi ESE 9.2 mph - N/A   Clear
7:10 AM 64.4 °F 64.4 °F 100% 29.87 in 10.0 mi SE 5.8 mph - N/A   Mostly Cloudy
7:30 AM 62.6 °F 62.6 °F 100% 29.87 in 7.0 mi SE 5.8 mph - N/A   Overcast
7:50 AM 62.6 °F 62.6 °F 100% 29.86 in 10.0 mi ESE 8.1 mph - N/A   Overcast
8:10 AM 62.6 °F 62.6 °F 100% 29.85 in 10.0 mi ESE 8.1 mph - N/A   Overcast
8:30 AM 64.4 °F 64.4 °F 100% 29.84 in 10.0 mi ESE 6.9 mph - N/A   Overcast
8:50 AM 64.4 °F 64.4 °F 100% 29.84 in 5.0 mi ESE 9.2 mph - N/A   Overcast
9:10 AM 62.6 °F 62.6 °F 100% 29.86 in 0.2 mi South 4.6 mph - N/A Fog Fog
9:30 AM 62.6 °F 62.6 °F 100% 29.85 in 5.0 mi SE 6.9 mph - N/A   Overcast
9:50 AM 62.6 °F 62.6 °F 100% 29.84 in 1.8 mi SE 5.8 mph - N/A   Overcast
10:10 AM 62.6 °F 62.6 °F 100% 29.83 in 1.0 mi SE 5.8 mph - N/A   Overcast
10:30 AM 62.6 °F 62.6 °F 100% 29.84 in 1.0 mi South 3.5 mph - N/A   Overcast
10:50 AM 62.6 °F 62.6 °F 100% 29.84 in 1.0 mi Calm Calm - N/A   Overcast
11:10 AM 64.4 °F 64.4 °F 100% 29.83 in 1.2 mi SW 3.5 mph - N/A   Overcast
11:30 AM 64.4 °F 64.4 °F 100% 29.84 in 1.5 mi WSW 4.6 mph - N/A   Overcast
11:50 AM 62.6 °F 62.6 °F 100% 29.84 in 1.5 mi West 6.9 mph - N/A   Overcast
12:10 PM 62.6 °F 62.6 °F 100% 29.84 in 2.5 mi West 4.6 mph - N/A   Overcast
12:30 PM 62.6 °F 62.6 °F 100% 29.83 in 1.0 mi WSW 5.8 mph - N/A   Overcast
12:50 PM 62.6 °F 62.6 °F 100% 29.83 in 2.0 mi West 8.1 mph - N/A   Overcast
1:10 PM 62.6 °F 62.6 °F 100% 29.82 in 2.5 mi West 8.1 mph - N/A   Overcast
1:30 PM 62.6 °F 62.6 °F 100% 29.82 in 10.0 mi West 9.2 mph - N/A   Overcast
1:50 PM 62.6 °F 62.6 °F 100% 29.81 in 3.0 mi West 8.1 mph - N/A   Overcast
2:10 PM 62.6 °F 62.6 °F 100% 29.81 in 2.5 mi WSW 8.1 mph - N/A   Overcast
2:30 PM 62.6 °F 62.6 °F 100% 29.80 in 2.0 mi WSW 9.2 mph 19.6 mph N/A   Overcast
2:50 PM 62.6 °F 62.6 °F 100% 29.81 in 5.0 mi WSW 12.7 mph 23.0 mph N/A   Overcast
3:10 PM 62.6 °F 62.6 °F 100% 29.81 in 4.0 mi WSW 9.2 mph 21.9 mph N/A   Overcast
3:30 PM 62.6 °F 62.6 °F 100% 29.81 in 3.0 mi West 9.2 mph 16.1 mph N/A   Overcast
3:50 PM 62.6 °F 62.6 °F 100% 29.81 in 7.0 mi WSW 11.5 mph 17.3 mph N/A   Overcast
4:10 PM 62.6 °F 62.6 °F 100% 29.79 in 10.0 mi WSW 6.9 mph 16.1 mph N/A   Overcast
4:30 PM 62.6 °F 62.6 °F 100% 29.79 in 10.0 mi WSW 10.4 mph 17.3 mph N/A   Overcast
4:50 PM 62.6 °F 62.6 °F 100% 29.79 in 4.0 mi West 9.2 mph - N/A   Overcast
5:10 PM 62.6 °F 62.6 °F 100% 29.78 in 1.0 mi WSW 9.2 mph - N/A   Overcast
5:30 PM 62.6 °F 62.6 °F 100% 29.77 in 1.5 mi West 13.8 mph 19.6 mph N/A   Overcast
5:50 PM 62.6 °F 62.6 °F 100% 29.77 in 1.2 mi West 11.5 mph 18.4 mph N/A   Overcast
6:10 PM 62.6 °F 62.6 °F 100% 29.77 in 0.5 mi West 9.2 mph - N/A Fog Fog
6:30 PM 62.6 °F 62.6 °F 100% 29.77 in 0.2 mi West 8.1 mph 17.3 mph N/A Fog Fog
6:50 PM 62.6 °F 62.6 °F 100% 29.78 in 0.2 mi West 6.9 mph - N/A Fog Fog
7:10 PM 62.6 °F 62.6 °F 100% 29.78 in 0.2 mi West 11.5 mph 16.1 mph N/A Fog Fog
7:30 PM 62.6 °F 62.6 °F 100% 29.78 in 0.2 mi WSW 8.1 mph 18.4 mph N/A Fog Fog
7:50 PM 62.6 °F 62.6 °F 100% 29.78 in 0.2 mi West 8.1 mph 16.1 mph N/A Fog Fog
8:10 PM 62.6 °F 62.6 °F 100% 29.78 in 0.2 mi West 8.1 mph - N/A Fog Fog
8:30 PM 62.6 °F 62.6 °F 100% 29.79 in 1.8 mi West 8.1 mph 18.4 mph N/A   Overcast
8:50 PM 62.6 °F 62.6 °F 100% 29.78 in 0.8 mi West 8.1 mph 18.4 mph N/A   Overcast
9:10 PM 62.6 °F 62.6 °F 100% 29.77 in 1.2 mi West 11.5 mph 19.6 mph N/A   Overcast
9:30 PM 62.6 °F 62.6 °F 100% 29.77 in 2.5 mi West 10.4 mph 19.6 mph N/A   Overcast
9:50 PM 62.6 °F 62.6 °F 100% 29.78 in 1.2 mi West 9.2 mph - N/A   Overcast
10:10 PM 62.6 °F 62.6 °F 100% 29.77 in 0.5 mi West 12.7 mph 17.3 mph N/A Fog Fog
10:30 PM 62.6 °F 62.6 °F 100% 29.78 in 1.2 mi West 8.1 mph 18.4 mph N/A   Overcast
10:50 PM 62.6 °F 62.6 °F 100% 29.78 in 2.5 mi WSW 11.5 mph 17.3 mph N/A   Overcast
11:10 PM 62.6 °F 62.6 °F 100% 29.77 in 1.5 mi WSW 12.7 mph 18.4 mph N/A   Overcast
11:30 PM 62.6 °F 62.6 °F 100% 29.77 in 1.8 mi WSW 13.8 mph 20.7 mph N/A   Overcast
11:50 PM 62.6 °F 62.6 °F 100% 29.77 in 2.5 mi West 9.2 mph 19.6 mph N/A   Overcast